Effective Sunday, March 17, 2024, the National Weather Service National Data Buoy Center will discontinue its Dial-A-Buoy Interactive Voice Response system. For more information, see Service Change Notice 24-06 (PDF).

Station TKEA2 - Tenakee Springs, AK Image indicating link to RSS feed of recent meteorological observations for station TKEA2


Conditions at TKEA2 as of
(6:02 am AKST)
1502 GMT on 02/26/2024:
     

Click on the graph icon in the table below to see a time series plot of the last five days of that observation.

5-day plot - Wind Direction Wind Direction (WDIR): W ( 270 deg true )
5-day plot - Wind Speed Wind Speed (WSPD): 4.1 kts
5-day plot - Wind Gust Wind Gust (GST): 9.9 kts
5-day plot - Atmospheric Pressure Atmospheric Pressure (PRES):30.02 in
5-day plot - Air Temperature Air Temperature (ATMP): 25.0 °F
5-day plot - Dew Point Dew Point (DEWP): 3.7 °F
5-day plot - Wind Chill Wind Chill (CHILL): 19.2 °F
5-day plot - Wind Speed at 10 Meters Wind Speed at 10 meters (WSPD10M): 5.8 kts
5-day plot - Wind Speed at 20 Meters Wind Speed at 20 meters (WSPD20M): 5.8 kts
5-day plot -  Wind Speed, Wind Gust and Atmospheric Pressure Combined plot of Wind Speed, Gust, and Air Pressure
Previous observations
TIME
(AKST)
5-day plot - Wind Direction
WDIR
 
5-day plot - Wind Speed
WSPD
kts
5-day plot - Wind Gust
GST
kts
5-day plot - Wave Height
WVHT
ft
5-day plot - Dominant Wave Period
DPD
sec
5-day plot - Average Wave Period
APD
sec
5-day plot - Mean Wave Direction
MWD
 
5-day plot - Atmospheric Pressure
PRES
in
5-day plot - Pressure Tendency
PTDY
in
5-day plot - Air Temperature
ATMP
°F
5-day plot - Water Temperature
WTMP
°F
5-day plot - Dew Point
DEWP
°F
5-day plot - Salinity
SAL
psu
5-day plot - Visibility
VIS
nmi
5-day plot - Tide (above MLLW)
TIDE
ft
2024-02-26 05:52 amNNE 4.1 12.0----30.02- 25.2- 3.4---
2024-02-26 05:42 am E 6.0 12.0----30.02- 25.3- 3.4---
2024-02-26 05:32 am NE 2.9 11.1----30.02- 25.2- 3.9---
2024-02-26 05:22 amWNW 2.9 9.9----30.01- 25.3- 4.1---
2024-02-26 05:12 amWNW 2.9 8.0----30.01- 25.3- 3.6---
2024-02-26 05:02 amENE 4.1 11.1----30.01- 25.3- 4.1---
2024-02-26 04:52 am N 4.1 8.9----30.01- 25.5- 3.9---
2024-02-26 04:42 amENE 2.9 9.9----30.01- 25.7- 4.1---
2024-02-26 04:32 am S 2.9 8.0----30.01- 25.9- 3.9---
2024-02-26 04:22 am NE 2.9 8.9----30.00- 25.7- 4.8---
2024-02-26 04:12 am NE 2.9 9.9----30.00- 25.9- 5.2---
2024-02-26 04:02 am NE 2.9 9.9----30.00- 26.2- 4.6---
2024-02-26 03:52 am W 1.9 7.0----29.99- 26.2- 5.2---
2024-02-26 03:42 am E 5.1 15.9----29.99- 26.2- 5.4---
2024-02-26 03:32 amWNW 2.9 9.9----29.99- 26.6- 5.0---
2024-02-26 03:22 am NW 2.9 8.9----29.99- 26.6- 5.0---
2024-02-26 03:12 amWNW 2.9 15.9----29.98- 26.8- 5.5---
2024-02-26 03:02 am NW 2.9 8.9----29.98- 26.8- 5.4---
2024-02-26 02:52 amNNW 1.9 5.1----29.98- 27.1- 5.5---
2024-02-26 02:42 am N 1.9 6.0----29.98- 27.1- 4.8---
2024-02-26 02:32 am N 4.1 8.0----29.97- 27.3- 5.5---
2024-02-26 02:22 amWNW 1.9 5.1----29.97- 27.3- 5.0---
2024-02-26 02:12 amWNW 2.9 7.0----29.96- 27.5- 5.5---
2024-02-26 02:02 am NE 4.1 8.0----29.96- 27.7- 4.8---
2024-02-26 01:52 am NW 2.9 7.0----29.96- 27.5- 5.2---
2024-02-26 01:42 amWNW 4.1 11.1----29.96- 27.9- 5.2---
2024-02-26 01:32 am SW 4.1 8.9----29.96- 28.0- 5.2---
2024-02-26 01:22 am NW 4.1 14.0----29.95- 27.9- 5.5---
2024-02-26 01:12 amWNW 4.1 7.0----29.95- 28.0- 5.5---
2024-02-26 01:02 amWNW 5.1 9.9----29.94- 28.2- 5.7---
2024-02-26 12:52 amWNW 4.1 8.9----29.93- 28.4- 5.2---
2024-02-26 12:42 am NW 2.9 6.0----29.93- 28.2- 5.4---
2024-02-26 12:32 amWNW 4.1 8.0----29.93- 28.4- 5.5---
2024-02-26 12:22 am NW 4.1 8.9----29.92- 28.8- 5.4---
2024-02-26 12:12 am NW 6.0 15.9----29.92- 28.8- 5.0---
2024-02-26 12:02 am NW 6.0 12.0----29.92- 28.8- 5.2---
2024-02-25 11:52 pmWNW 4.1 14.0----29.91- 28.9- 5.5---
2024-02-25 11:42 pm N 5.1 15.9----29.91- 29.1- 5.2---
2024-02-25 11:32 pm NE 4.1 11.1----29.91- 29.3- 6.3---
2024-02-25 11:22 pm NW 4.1 14.0----29.90- 29.5- 5.9---
2024-02-25 11:12 pmWNW 6.0 15.9----29.90- 29.5- 6.1---
2024-02-25 11:02 pmWNW 6.0 15.9----29.89- 29.5- 5.9---
2024-02-25 10:52 pmWNW 6.0 21.0----29.89- 29.5- 6.1---
2024-02-25 10:42 pmWNW 5.1 12.0----29.89- 29.7- 5.4---
2024-02-25 10:32 pmWNW 4.1 12.0----29.89- 29.7- 5.4---
2024-02-25 10:22 pm N 5.1 15.0----29.88- 29.8- 4.8---
2024-02-25 10:12 pm NW 6.0 15.9----29.88- 29.8- 4.6---
2024-02-25 10:02 pm NW 5.1 12.0----29.88- 29.7- 5.2---
2024-02-25 09:52 pm NW 5.1 17.1----29.87- 29.8- 4.5---
2024-02-25 09:42 pmWNW 6.0 15.0----29.87- 29.8- 4.8---
2024-02-25 09:32 pmWNW 5.1 13.0----29.86- 29.7- 4.6---
2024-02-25 09:22 pmWNW 5.1 11.1----29.86- 30.0- 4.5---
2024-02-25 09:12 pm NW 5.1 13.0----29.86- 30.0- 4.3---
2024-02-25 09:02 pm NW 4.1 9.9----29.85- 30.0- 4.8---
2024-02-25 08:52 pmWNW 2.9 8.0----29.85- 30.2- 4.8---
2024-02-25 08:42 pm NW 4.1 12.0----29.85- 30.2- 5.2---
2024-02-25 08:32 pmWNW 4.1 7.0----29.85- 30.4- 4.8---
2024-02-25 08:22 pmNNW 4.1 12.0----29.84- 30.4- 5.0---
2024-02-25 08:12 pm NW 2.9 11.1----29.84- 30.4- 5.0---
2024-02-25 08:03 pm NW 4.1 11.1----29.83- 30.6- 5.2---
2024-02-25 07:52 pm NW 6.0 14.0----29.83- 30.9- 4.6---
2024-02-25 07:42 pmNNW 5.1 11.1----29.83- 30.7- 5.0---
2024-02-25 07:33 pmWNW 4.1 15.9----29.82- 30.7- 5.4---
2024-02-25 07:22 pm NW 4.1 11.1----29.82- 30.9- 5.5---
2024-02-25 07:12 pmNNW 5.1 20.0----29.81- 31.1- 5.2---
2024-02-25 07:03 pmWNW 4.1 15.9----29.81- 31.1- 5.0---
2024-02-25 06:52 pmNNW 5.1 18.1----29.81- 31.1- 4.8---
2024-02-25 06:42 pm NW 5.1 21.0----29.80- 31.3- 4.6---
2024-02-25 06:32 pm NW 5.1 14.0----29.80- 31.1- 5.4---
2024-02-25 06:22 pmNNW 4.1 15.0----29.80- 31.1- 6.1---
2024-02-25 06:12 pmNNW 4.1 18.1----29.79- 31.1- 6.3---
2024-02-25 06:02 pm NW 4.1 11.1----29.79- 31.1- 6.1---
2024-02-25 05:52 pm NW 4.1 15.0----29.78- 31.3- 6.1---
2024-02-25 05:42 pmWNW 5.1 13.0----29.78- 31.5- 6.3---
2024-02-25 05:32 pmWNW 4.1 13.0----29.78- 31.6- 5.9---
2024-02-25 05:22 pmWNW 5.1 13.0----29.77- 31.8- 5.9---
2024-02-25 05:12 pmWNW 5.1 13.0----29.76- 32.2- 6.6---
2024-02-25 05:02 pmNNW 2.9 7.0----29.76- 32.9- 6.6---
2024-02-25 04:52 pm NW 5.1 15.0----29.76- 32.9- 6.4---
2024-02-25 04:42 pmWNW 5.1 12.0----29.75- 33.1- 6.6---
2024-02-25 04:32 pmWNW 7.0 21.0----29.75- 33.3- 6.1---
2024-02-25 04:22 pmWNW 5.1 12.0----29.75- 33.6- 6.4---
2024-02-25 04:12 pm NW 5.1 12.0----29.75- 33.8- 7.2---
2024-02-25 04:02 pmWNW 7.0 24.1----29.74- 34.0- 6.8---
2024-02-25 03:52 pmWNW 4.1 12.0----29.74- 34.7- 7.2---
2024-02-25 03:42 pm NW 4.1 13.0----29.73- 34.7- 7.3---
2024-02-25 03:32 pmENE 4.1 11.1----29.73- 34.3- 6.8---
2024-02-25 03:22 pm NW 5.1 13.0----29.72- 34.9- 7.5---
2024-02-25 03:12 pmNNE 4.1 9.9----29.72- 34.9- 6.6---
2024-02-25 02:52 pm NE 2.9 9.9----29.71- 35.2- 7.2---
2024-02-25 02:42 pm N 4.1 9.9----29.71- 35.1- 7.7---
2024-02-25 02:32 pm N 4.1 17.1----29.70- 35.1- 7.9---
2024-02-25 02:22 pmNNW 5.1 19.0----29.70- 34.9- 7.3---
2024-02-25 02:12 pm N 5.1 15.9----29.70- 34.9- 7.5---
2024-02-25 02:02 pmNNE 5.1 15.0----29.69- 35.1- 7.7---
2024-02-25 01:52 pm NW 2.9 8.9----29.69- 35.2- 7.7---
2024-02-25 01:42 pmWNW 2.9 8.0----29.69- 34.9- 6.8---
2024-02-25 01:32 pm NE 5.1 13.0----29.69- 34.3- 7.7---
2024-02-25 01:22 pmENE 6.0 20.0----29.68- 34.5- 6.6---
2024-02-25 01:12 pm NE 6.0 18.1----29.67- 35.1- 6.8---
2024-02-25 01:02 pmNNE 4.1 8.9----29.67- 34.9- 6.8---
2024-02-25 12:52 pm NE 6.0 19.0----29.67- 34.3- 6.6---
2024-02-25 12:42 pm N 4.1 17.1----29.67- 34.3- 7.2---
2024-02-25 12:32 pm N 5.1 14.0----29.66- 34.3- 7.5---
2024-02-25 12:22 pm N 6.0 18.1----29.65- 34.5- 7.7---
2024-02-25 12:12 pm NE 5.1 17.1----29.65- 34.5- 8.1---
2024-02-25 12:02 pm NE 6.0 18.1----29.65- 34.3- 8.1---
2024-02-25 11:52 am NE 5.1 11.1----29.65- 34.2- 7.9---
2024-02-25 11:42 amNNW 5.1 17.1----29.64- 33.8- 6.6---
2024-02-25 11:32 amNNW 5.1 15.0----29.64- 34.0- 8.2---
2024-02-25 11:22 am NW 5.1 14.0----29.63- 33.8- 7.9---
2024-02-25 11:12 am N 6.0 18.1----29.63- 33.8- 8.4---
2024-02-25 11:02 am NE 5.1 13.0----29.62- 34.2- 8.6---
2024-02-25 10:52 amNNE 5.1 20.0----29.62- 33.6- 9.0---
2024-02-25 10:42 am NE 7.0 24.1----29.62- 33.4- 8.6---
2024-02-25 10:32 am NE 5.1 12.0----29.62- 33.1- 9.1---
2024-02-25 10:22 amENE 5.1 15.9----29.61- 32.7- 9.7---
2024-02-25 10:12 am N 8.0 22.9----29.60- 32.5- 9.0---
2024-02-25 10:02 am NE 6.0 18.1----29.61- 32.4- 9.0---
2024-02-25 09:52 am NE 5.1 11.1----29.60- 32.4- 9.0---
2024-02-25 09:42 am N 5.1 18.1----29.60- 32.4- 9.3---
2024-02-25 09:32 amNNW 6.0 15.0----29.59- 32.2- 9.0---
2024-02-25 09:22 amWNW 5.1 13.0----29.59- 32.4- 8.8---
2024-02-25 09:12 am NW 5.1 12.0----29.59- 32.2- 9.0---
2024-02-25 09:02 am NW 4.1 9.9----29.58- 32.0- 9.5---
2024-02-25 08:52 am NW 5.1 13.0----29.58- 32.2- 8.8---
2024-02-25 08:42 amWNW 8.9 24.1----29.57- 32.2- 9.3---
2024-02-25 08:32 am NW 7.0 19.0----29.57- 32.2- 9.0---
2024-02-25 08:23 amWNW 7.0 20.0----29.56- 32.2- 9.5---
2024-02-25 08:13 am NW 7.0 19.0----29.56- 32.2- 9.7---
2024-02-25 08:03 amWNW 7.0 15.9----29.56- 32.0- 10.6---
2024-02-25 07:52 am NW 5.1 14.0----29.56- 32.2- 10.8---
2024-02-25 07:42 amWNW 6.0 15.9----29.55- 32.0- 10.9---
2024-02-25 07:33 amNNW 4.1 12.0----29.55- 32.0- 10.9---
2024-02-25 07:23 amNNW 5.1 14.0----29.54- 32.0- 11.3---
2024-02-25 07:13 amNNW 7.0 17.1----29.54- 32.0- 11.1---
2024-02-25 07:03 am N 5.1 19.0----29.53- 32.0- 11.7---
2024-02-25 06:52 am N 7.0 22.9----29.53- 32.0- 11.7---
2024-02-25 06:42 amNNW 6.0 17.1----29.52- 32.0- 11.7---
2024-02-25 06:32 amNNW 6.0 15.9----29.52- 32.0- 11.8---
2024-02-25 06:22 am N 4.1 13.0----29.51- 32.0- 12.2---
2024-02-25 06:12 am N 4.1 20.0----29.51- 32.2- 12.0---
2024-02-25 06:02 amNNW 5.1 15.0----29.51- 32.0- 11.8---
2024-02-25 05:52 am NE 6.0 17.1----29.50- 32.0- 11.8---